"datetime","temp","dp","rain_mm","uv","solar","mb","wind_mph","gust_mph","windchill","rh"
"2023-11-15 00:00:00",7.8,7.0,0.0,0.0,0,1011.2,1,2,"",95
"2023-11-15 00:01:00",7.8,7.0,0.0,0.0,0,1011.3,1,2,"",95
"2023-11-15 00:02:00",7.8,7.0,0.0,0.0,0,1011.3,1,1,"",95
"2023-11-15 00:03:00",7.8,7.0,0.0,0.0,0,1011.3,1,2,"",95
"2023-11-15 00:04:00",7.8,7.0,0.0,0.0,0,1011.4,1,1,"",95
"2023-11-15 00:05:00",7.8,7.0,0.0,0.0,0,1011.3,1,2,"",95
"2023-11-15 00:06:00",7.8,7.0,0.0,0.0,0,1011.4,1,2,"",95
"2023-11-15 00:07:00",7.8,7.0,0.0,0.0,0,1011.4,1,2,"",95
"2023-11-15 00:08:00",7.8,7.0,0.0,0.0,0,1011.4,1,2,"",95
"2023-11-15 00:09:00",7.8,7.0,0.0,0.0,0,1011.4,1,2,"",95
"2023-11-15 00:10:00",7.8,7.0,0.0,0.0,0,1011.4,1,2,"",95
"2023-11-15 00:11:00",7.8,7.0,0.0,0.0,0,1011.4,2,2,"",95
"2023-11-15 00:12:00",7.8,7.0,0.0,0.0,0,1011.4,2,2,"",95
"2023-11-15 00:13:00",7.8,7.0,0.0,0.0,0,1011.5,1,2,"",95
"2023-11-15 00:14:00",7.8,7.0,0.0,0.0,0,1011.5,1,2,"",95
"2023-11-15 00:15:00",7.8,7.0,0.0,0.0,0,1011.5,2,2,"",95
"2023-11-15 00:16:00",7.8,7.0,0.0,0.0,0,1011.5,1,2,"",95
"2023-11-15 00:17:00",7.8,7.0,0.0,0.0,0,1011.5,1,3,"",95
"2023-11-15 00:18:00",7.8,7.0,0.0,0.0,0,1011.5,2,3,"",95
"2023-11-15 00:19:00",7.8,7.0,0.0,0.0,0,1011.6,2,3,"",95
"2023-11-15 00:20:00",7.8,7.0,0.0,0.0,0,1011.6,2,3,"",95
"2023-11-15 00:21:00",7.8,7.0,0.0,0.0,0,1011.6,1,3,"",95
"2023-11-15 00:22:00",7.8,7.0,0.0,0.0,0,1011.5,1,3,"",95
"2023-11-15 00:23:00",7.8,7.0,0.0,0.0,0,1011.6,1,2,"",95
"2023-11-15 00:24:00",7.8,7.0,0.0,0.0,0,1011.6,1,2,"",95
"2023-11-15 00:25:00",7.8,7.0,0.0,0.0,0,1011.7,2,3,"",95
"2023-11-15 00:26:00",7.8,7.0,0.0,0.0,0,1011.7,1,2,"",95
"2023-11-15 00:27:00",7.8,7.0,0.0,0.0,0,1011.7,1,2,"",95
"2023-11-15 00:28:00",7.8,7.0,0.0,0.0,0,1011.7,1,2,"",95
"2023-11-15 00:29:00",7.8,7.0,0.0,0.0,0,1011.6,1,2,"",95
"2023-11-15 00:30:00",7.8,7.0,0.0,0.0,0,1011.6,1,2,"",95
"2023-11-15 00:31:00",7.8,7.0,0.0,0.0,0,1011.6,1,2,"",95
"2023-11-15 00:32:00",7.8,7.0,0.0,0.0,0,1011.6,1,2,"",95
"2023-11-15 00:33:00",7.8,7.2,0.0,0.0,0,1011.6,1,2,"",96
"2023-11-15 00:34:00",7.8,7.2,0.0,0.0,0,1011.6,1,2,"",96
"2023-11-15 00:35:00",7.8,7.0,0.0,0.0,0,1011.6,1,2,"",95
"2023-11-15 00:36:00",7.8,7.0,0.0,0.0,0,1011.6,0,1,"",95
"2023-11-15 00:37:00",7.8,7.0,0.0,0.0,0,1011.7,1,1,"",95
"2023-11-15 00:38:00",7.8,7.2,0.0,0.0,0,1011.7,1,2,"",96
"2023-11-15 00:39:00",7.8,7.2,0.0,0.0,0,1011.7,1,3,"",96
"2023-11-15 00:40:00",7.8,7.2,0.0,0.0,0,1011.8,2,3,"",96
"2023-11-15 00:41:00",7.9,7.3,0.0,0.0,0,1011.7,1,2,"",96
"2023-11-15 00:42:00",7.9,7.1,0.0,0.0,0,1011.7,1,2,"",95
"2023-11-15 00:43:00",7.9,7.1,0.0,0.0,0,1011.8,1,2,"",95
"2023-11-15 00:44:00",7.9,7.1,0.0,0.0,0,1011.8,1,1,"",95
"2023-11-15 00:45:00",7.9,7.1,0.0,0.0,0,1011.8,1,2,"",95
"2023-11-15 00:46:00",7.9,7.1,0.0,0.0,0,1011.8,0,1,"",95
"2023-11-15 00:47:00",7.9,7.1,0.0,0.0,0,1011.8,1,2,"",95
"2023-11-15 00:48:00",7.9,7.1,0.0,0.0,0,1011.8,1,2,"",95
"2023-11-15 00:49:00",7.9,7.1,0.0,0.0,0,1011.8,1,2,"",95
"2023-11-15 00:50:00",7.9,7.1,0.0,0.0,0,1011.8,1,2,"",95
"2023-11-15 00:51:00",7.9,7.1,0.0,0.0,0,1011.8,1,2,"",95
"2023-11-15 00:52:00",7.9,7.1,0.0,0.0,0,1011.8,2,2,"",95
"2023-11-15 00:53:00",7.9,7.1,0.0,0.0,0,1011.8,1,2,"",95
"2023-11-15 00:54:00",7.9,7.1,0.0,0.0,0,1011.8,2,3,"",95
"2023-11-15 00:55:00",7.9,7.1,0.0,0.0,0,1011.8,1,2,"",95
"2023-11-15 00:56:00",7.9,7.1,0.0,0.0,0,1011.9,1,2,"",95
"2023-11-15 00:57:00",7.9,7.1,0.0,0.0,0,1011.9,1,2,"",95
"2023-11-15 00:58:00",7.9,7.1,0.0,0.0,0,1011.9,1,2,"",95
"2023-11-15 00:59:00",7.9,7.1,0.0,0.0,0,1012.0,0,1,"",95
"2023-11-15 01:00:00",7.9,7.1,0.0,0.0,0,1011.9,1,3,"",95
"2023-11-15 01:01:00",7.9,7.1,0.0,0.0,0,1012.0,1,3,"",95
"2023-11-15 01:02:00",7.9,7.1,0.0,0.0,0,1012.0,1,2,"",95
"2023-11-15 01:03:00",7.9,7.1,0.0,0.0,0,1012.0,2,3,"",95
"2023-11-15 01:04:00",7.9,7.1,0.0,0.0,0,1012.0,1,2,"",95
"2023-11-15 01:05:00",7.9,7.1,0.0,0.0,0,1012.0,1,2,"",95
"2023-11-15 01:06:00",7.9,7.1,0.0,0.0,0,1012.0,2,2,"",95
"2023-11-15 01:07:00",7.9,7.1,0.0,0.0,0,1012.0,2,3,"",95
"2023-11-15 01:08:00",7.9,7.1,0.0,0.0,0,1012.1,1,2,"",95
"2023-11-15 01:09:00",7.9,7.1,0.0,0.0,0,1012.0,1,2,"",95
"2023-11-15 01:10:00",7.9,7.1,0.0,0.0,0,1012.1,2,3,"",95
"2023-11-15 01:11:00",7.9,7.1,0.0,0.0,0,1012.1,1,2,"",95
"2023-11-15 01:12:00",7.9,7.1,0.0,0.0,0,1012.1,2,3,"",95
"2023-11-15 01:13:00",7.9,7.1,0.0,0.0,0,1012.1,1,2,"",95
"2023-11-15 01:14:00",7.9,7.1,0.0,0.0,0,1012.1,2,2,"",95
"2023-11-15 01:15:00",7.9,7.1,0.0,0.0,0,1012.1,1,2,"",95
"2023-11-15 01:16:00",7.9,7.1,0.0,0.0,0,1012.1,2,3,"",95
"2023-11-15 01:17:00",7.9,7.1,0.0,0.0,0,1012.1,1,2,"",95
"2023-11-15 01:18:00",7.9,7.1,0.0,0.0,0,1012.0,1,2,"",95
"2023-11-15 01:19:00",7.9,7.1,0.0,0.0,0,1012.1,1,2,"",95
"2023-11-15 01:20:00",7.9,7.1,0.0,0.0,0,1012.1,2,3,"",95
"2023-11-15 01:21:00",7.9,7.1,0.0,0.0,0,1012.1,1,2,"",95
"2023-11-15 01:22:00",8.0,7.2,0.0,0.0,0,1012.1,1,2,"",95
"2023-11-15 01:23:00",8.0,7.2,0.0,0.0,0,1012.1,0,1,"",95
"2023-11-15 01:24:00",8.0,7.2,0.0,0.0,0,1012.2,1,1,"",95
"2023-11-15 01:25:00",8.0,7.2,0.0,0.0,0,1012.1,1,2,"",95
"2023-11-15 01:26:00",8.0,7.2,0.0,0.0,0,1012.1,2,3,"",95
"2023-11-15 01:27:00",8.0,7.2,0.0,0.0,0,1012.1,1,3,"",95
"2023-11-15 01:28:00",8.1,7.5,0.0,0.0,0,1012.1,1,2,"",96
"2023-11-15 01:29:00",8.1,7.3,0.0,0.0,0,1012.1,1,1,"",95
"2023-11-15 01:30:00",8.1,7.5,0.0,0.0,0,1012.1,0,1,"",96
"2023-11-15 01:31:00",8.1,7.5,0.0,0.0,0,1012.1,1,2,"",96
"2023-11-15 01:32:00",8.1,7.5,0.0,0.0,0,1012.1,2,3,"",96
"2023-11-15 01:33:00",8.1,7.5,0.0,0.0,0,1012.1,1,2,"",96
"2023-11-15 01:34:00",8.1,7.5,0.0,0.0,0,1012.1,2,3,"",96
"2023-11-15 01:35:00",8.2,7.6,0.0,0.0,0,1012.1,2,3,"",96
"2023-11-15 01:36:00",8.2,7.6,0.0,0.0,0,1012.2,2,3,"",96
"2023-11-15 01:37:00",8.2,7.6,0.0,0.0,0,1012.2,1,2,"",96
"2023-11-15 01:38:00",8.2,7.6,0.0,0.0,0,1012.2,2,3,"",96
"2023-11-15 01:39:00",8.2,7.6,0.0,0.0,0,1012.2,1,3,"",96
"2023-11-15 01:40:00",8.2,7.6,0.0,0.0,0,1012.3,1,2,"",96
"2023-11-15 01:41:00",8.2,7.6,0.0,0.0,0,1012.2,1,2,"",96
"2023-11-15 01:42:00",8.2,7.6,0.0,0.0,0,1012.2,1,3,"",96
"2023-11-15 01:43:00",8.2,7.6,0.0,0.0,0,1012.2,1,1,"",96
"2023-11-15 01:44:00",8.3,7.7,0.0,0.0,0,1012.3,1,2,"",96
"2023-11-15 01:45:00",8.3,7.7,0.0,0.0,0,1012.2,1,2,"",96
"2023-11-15 01:46:00",8.3,7.7,0.0,0.0,0,1012.2,1,2,"",96
"2023-11-15 01:47:00",8.3,7.7,0.0,0.0,0,1012.3,1,2,"",96
"2023-11-15 01:48:00",8.3,7.7,0.0,0.0,0,1012.3,2,3,"",96
"2023-11-15 01:49:00",8.3,7.5,0.0,0.0,0,1012.2,0,1,"",95
"2023-11-15 01:50:00",8.3,7.7,0.0,0.0,0,1012.3,1,2,"",96
"2023-11-15 01:51:00",8.3,7.7,0.0,0.0,0,1012.3,1,2,"",96
"2023-11-15 01:52:00",8.3,7.5,0.0,0.0,0,1012.3,0,1,"",95
"2023-11-15 01:53:00",8.3,7.5,0.0,0.0,0,1012.3,0,1,"",95
"2023-11-15 01:54:00",8.3,7.5,0.0,0.0,0,1012.4,0,1,"",95
"2023-11-15 01:55:00",8.3,7.5,0.0,0.0,0,1012.4,1,2,"",95
"2023-11-15 01:56:00",8.3,7.5,0.0,0.0,0,1012.4,1,2,"",95
"2023-11-15 01:57:00",8.3,7.5,0.0,0.0,0,1012.4,1,2,"",95
"2023-11-15 01:58:00",8.3,7.5,0.0,0.0,0,1012.4,1,2,"",95
"2023-11-15 01:59:00",8.3,7.5,0.0,0.0,0,1012.4,1,2,"",95
"2023-11-15 02:00:00",8.3,7.5,0.0,0.0,0,1012.4,1,2,"",95
"2023-11-15 02:01:00",8.3,7.5,0.0,0.0,0,1012.5,2,3,"",95
"2023-11-15 02:02:00",8.3,7.5,0.0,0.0,0,1012.4,1,1,"",95
"2023-11-15 02:03:00",8.3,7.5,0.0,0.0,0,1012.5,1,2,"",95
"2023-11-15 02:04:00",8.3,7.5,0.0,0.0,0,1012.5,0,1,"",95
"2023-11-15 02:05:00",8.3,7.5,0.0,0.0,0,1012.5,1,1,"",95
"2023-11-15 02:06:00",8.3,7.5,0.0,0.0,0,1012.6,1,2,"",95
"2023-11-15 02:07:00",8.3,7.5,0.0,0.0,0,1012.6,1,2,"",95
"2023-11-15 02:08:00",8.3,7.5,0.0,0.0,0,1012.6,2,2,"",95
"2023-11-15 02:09:00",8.3,7.5,0.0,0.0,0,1012.6,1,1,"",95
"2023-11-15 02:10:00",8.3,7.5,0.0,0.0,0,1012.6,1,2,"",95
"2023-11-15 02:11:00",8.3,7.5,0.0,0.0,0,1012.6,1,2,"",95
"2023-11-15 02:12:00",8.2,7.4,0.0,0.0,0,1012.6,1,2,"",95
"2023-11-15 02:13:00",8.2,7.4,0.0,0.0,0,1012.6,1,2,"",95
"2023-11-15 02:14:00",8.2,7.4,0.0,0.0,0,1012.7,1,2,"",95
"2023-11-15 02:15:00",8.2,7.4,0.0,0.0,0,1012.7,1,2,"",95
"2023-11-15 02:16:00",8.2,7.4,0.0,0.0,0,1012.7,2,3,"",95
"2023-11-15 02:17:00",8.2,7.4,0.0,0.0,0,1012.7,2,2,"",95
"2023-11-15 02:18:00",8.2,7.4,0.0,0.0,0,1012.7,2,3,"",95
"2023-11-15 02:19:00",8.2,7.4,0.0,0.0,0,1012.6,2,3,"",95
"2023-11-15 02:20:00",8.2,7.4,0.0,0.0,0,1012.8,2,3,"",95
"2023-11-15 02:21:00",8.2,7.4,0.0,0.0,0,1012.7,2,3,"",95
"2023-11-15 02:22:00",8.2,7.4,0.0,0.0,0,1012.7,2,2,"",95
"2023-11-15 02:23:00",8.1,7.3,0.0,0.0,0,1012.8,2,3,"",95
"2023-11-15 02:24:00",8.1,7.3,0.0,0.0,0,1012.7,2,3,"",95
"2023-11-15 02:25:00",8.1,7.3,0.0,0.0,0,1012.8,2,2,"",95
"2023-11-15 02:26:00",8.1,7.3,0.0,0.0,0,1012.8,2,3,"",95
"2023-11-15 02:27:00",8.1,7.3,0.0,0.0,0,1012.8,2,2,"",95
"2023-11-15 02:28:00",8.1,7.3,0.0,0.0,0,1012.8,2,2,"",95
"2023-11-15 02:29:00",8.1,7.3,0.0,0.0,0,1012.9,2,2,"",95
"2023-11-15 02:30:00",8.0,7.2,0.0,0.0,0,1012.8,1,2,"",95
"2023-11-15 02:31:00",8.0,7.2,0.0,0.0,0,1012.8,1,2,"",95
"2023-11-15 02:32:00",8.0,7.2,0.0,0.0,0,1012.9,1,2,"",95
"2023-11-15 02:33:00",8.0,7.2,0.0,0.0,0,1012.8,1,2,"",95
"2023-11-15 02:34:00",7.9,7.1,0.0,0.0,0,1012.9,2,3,"",95
"2023-11-15 02:35:00",7.9,7.1,0.0,0.0,0,1012.9,2,2,"",95
"2023-11-15 02:36:00",7.9,7.1,0.0,0.0,0,1012.8,1,2,"",95
"2023-11-15 02:37:00",7.9,7.1,0.0,0.0,0,1012.8,2,2,"",95
"2023-11-15 02:38:00",7.9,7.1,0.0,0.0,0,1012.8,1,3,"",95
"2023-11-15 02:39:00",7.9,7.1,0.0,0.0,0,1012.8,2,4,6.9,95
"2023-11-15 02:40:00",7.9,7.1,0.0,0.0,0,1012.8,1,2,"",95
"2023-11-15 02:41:00",7.9,7.1,0.0,0.0,0,1012.8,2,4,6.9,95
"2023-11-15 02:42:00",7.8,7.0,0.0,0.0,0,1012.8,1,2,"",95
"2023-11-15 02:43:00",7.9,7.1,0.0,0.0,0,1012.8,1,2,"",95
"2023-11-15 02:44:00",7.9,7.1,0.0,0.0,0,1012.8,1,2,"",95
"2023-11-15 02:45:00",7.8,7.0,0.0,0.0,0,1012.8,1,2,"",95
"2023-11-15 02:46:00",7.8,7.0,0.0,0.0,0,1012.8,2,3,"",95
"2023-11-15 02:47:00",7.8,7.0,0.0,0.0,0,1012.8,2,3,"",95
"2023-11-15 02:48:00",7.8,7.0,0.0,0.0,0,1012.9,1,2,"",95
"2023-11-15 02:49:00",7.8,7.0,0.0,0.0,0,1012.8,1,2,"",95
"2023-11-15 02:50:00",7.8,7.0,0.0,0.0,0,1012.8,1,2,"",95
"2023-11-15 02:51:00",7.8,7.0,0.0,0.0,0,1012.8,1,2,"",95
"2023-11-15 02:52:00",7.8,7.2,0.0,0.0,0,1012.8,1,2,"",96
"2023-11-15 02:53:00",7.8,7.0,0.0,0.0,0,1012.8,1,1,"",95
"2023-11-15 02:54:00",7.8,7.0,0.0,0.0,0,1012.8,1,2,"",95
"2023-11-15 02:55:00",7.8,7.0,0.0,0.0,0,1012.8,1,2,"",95
"2023-11-15 02:56:00",7.8,7.2,0.0,0.0,0,1012.8,1,2,"",96
"2023-11-15 02:57:00",7.8,7.0,0.0,0.0,0,1012.8,1,2,"",95
"2023-11-15 02:58:00",7.8,7.2,0.0,0.0,0,1012.8,1,2,"",96
"2023-11-15 02:59:00",7.8,7.0,0.0,0.0,0,1012.8,2,3,"",95
"2023-11-15 03:00:00",7.8,7.2,0.0,0.0,0,1012.8,1,3,"",96
"2023-11-15 03:01:00",7.8,7.2,0.0,0.0,0,1012.8,2,2,"",96
"2023-11-15 03:02:00",7.8,7.2,0.0,0.0,0,1012.8,2,3,"",96
"2023-11-15 03:03:00",7.8,7.0,0.0,0.0,0,1012.8,2,3,"",95
"2023-11-15 03:04:00",7.8,7.0,0.0,0.0,0,1012.8,2,2,"",95
"2023-11-15 03:05:00",7.7,7.1,0.0,0.0,0,1012.8,2,3,"",96
"2023-11-15 03:06:00",7.7,7.1,0.0,0.0,0,1012.8,2,2,"",96
"2023-11-15 03:07:00",7.7,6.9,0.0,0.0,0,1012.8,2,2,"",95
"2023-11-15 03:08:00",7.8,7.2,0.0,0.0,0,1012.9,1,2,"",96
"2023-11-15 03:09:00",7.7,7.1,0.0,0.0,0,1012.9,1,2,"",96
"2023-11-15 03:10:00",7.7,7.1,0.0,0.0,0,1012.9,1,2,"",96
"2023-11-15 03:11:00",7.7,7.1,0.0,0.0,0,1012.9,1,2,"",96
"2023-11-15 03:12:00",7.7,7.1,0.0,0.0,0,1012.9,0,1,"",96
"2023-11-15 03:13:00",7.7,6.9,0.0,0.0,0,1012.9,0,2,"",95
"2023-11-15 03:14:00",7.7,6.9,0.0,0.0,0,1012.9,0,0,"",95
"2023-11-15 03:15:00",7.7,6.9,0.0,0.0,0,1012.9,0,1,"",95
"2023-11-15 03:16:00",7.7,6.9,0.0,0.0,0,1013.0,0,1,"",95
"2023-11-15 03:17:00",7.7,6.9,0.0,0.0,0,1012.9,1,2,"",95
"2023-11-15 03:18:00",7.7,6.9,0.0,0.0,0,1013.0,1,2,"",95
"2023-11-15 03:19:00",7.6,6.9,0.0,0.0,0,1013.0,1,2,"",95
"2023-11-15 03:20:00",7.6,6.9,0.0,0.0,0,1013.0,1,2,"",95
"2023-11-15 03:21:00",7.7,6.9,0.0,0.0,0,1013.0,1,2,"",95
"2023-11-15 03:22:00",7.6,6.9,0.0,0.0,0,1013.0,1,2,"",95
"2023-11-15 03:23:00",7.6,6.9,0.0,0.0,0,1013.0,1,2,"",95
"2023-11-15 03:24:00",7.6,6.9,0.0,0.0,0,1013.0,1,2,"",95
"2023-11-15 03:25:00",7.6,6.9,0.0,0.0,0,1013.0,1,2,"",95
"2023-11-15 03:26:00",7.6,6.9,0.0,0.0,0,1013.1,0,2,"",95
"2023-11-15 03:27:00",7.6,6.9,0.0,0.0,0,1013.1,0,1,"",95
"2023-11-15 03:28:00",7.6,6.9,0.0,0.0,0,1013.1,1,1,"",95
"2023-11-15 03:29:00",7.6,6.9,0.0,0.0,0,1013.0,1,2,"",95
"2023-11-15 03:30:00",7.6,6.9,0.0,0.0,0,1013.0,1,2,"",95
"2023-11-15 03:31:00",7.6,6.9,0.0,0.0,0,1013.0,1,2,"",95
"2023-11-15 03:32:00",7.6,6.9,0.0,0.0,0,1013.1,0,2,"",95
"2023-11-15 03:33:00",7.5,6.8,0.0,0.0,0,1013.0,1,2,"",95
"2023-11-15 03:34:00",7.5,6.8,0.0,0.0,0,1013.1,1,2,"",95
"2023-11-15 03:35:00",7.6,6.9,0.0,0.0,0,1013.1,1,2,"",95
"2023-11-15 03:36:00",7.5,6.8,0.0,0.0,0,1013.1,1,2,"",95
"2023-11-15 03:37:00",7.5,6.8,0.0,0.0,0,1013.2,1,1,"",95
"2023-11-15 03:38:00",7.5,6.8,0.0,0.0,0,1013.2,1,2,"",95
"2023-11-15 03:39:00",7.5,6.8,0.0,0.0,0,1013.2,1,2,"",95
"2023-11-15 03:40:00",7.5,6.8,0.0,0.0,0,1013.2,1,2,"",95
"2023-11-15 03:41:00",7.5,6.8,0.0,0.0,0,1013.2,0,1,"",95
"2023-11-15 03:42:00",7.5,6.8,0.0,0.0,0,1013.2,1,3,"",95
"2023-11-15 03:43:00",7.5,6.8,0.0,0.0,0,1013.2,0,1,"",95
"2023-11-15 03:44:00",7.5,6.8,0.0,0.0,0,1013.3,0,1,"",95
"2023-11-15 03:45:00",7.5,6.8,0.0,0.0,0,1013.3,0,1,"",95
"2023-11-15 03:46:00",7.5,6.8,0.0,0.0,0,1013.3,1,1,"",95
"2023-11-15 03:47:00",7.4,6.7,0.0,0.0,0,1013.2,1,1,"",95
"2023-11-15 03:48:00",7.4,6.7,0.0,0.0,0,1013.3,1,2,"",95
"2023-11-15 03:49:00",7.4,6.7,0.0,0.0,0,1013.3,1,1,"",95
"2023-11-15 03:50:00",7.4,6.7,0.0,0.0,0,1013.3,1,1,"",95
"2023-11-15 03:51:00",7.4,6.7,0.0,0.0,0,1013.3,1,2,"",95
"2023-11-15 03:52:00",7.4,6.7,0.0,0.0,0,1013.3,1,2,"",95
"2023-11-15 03:53:00",7.4,6.7,0.0,0.0,0,1013.3,1,3,"",95
"2023-11-15 03:54:00",7.4,6.7,0.0,0.0,0,1013.3,1,2,"",95
"2023-11-15 03:55:00",7.4,6.8,0.0,0.0,0,1013.3,1,2,"",96
"2023-11-15 03:56:00",7.4,6.7,0.0,0.0,0,1013.3,1,2,"",95
"2023-11-15 03:57:00",7.4,6.7,0.0,0.0,0,1013.3,1,2,"",95
"2023-11-15 03:58:00",7.4,6.7,0.0,0.0,0,1013.3,1,2,"",95
"2023-11-15 03:59:00",7.4,6.8,0.0,0.0,0,1013.3,1,2,"",96
"2023-11-15 04:00:00",7.4,6.8,0.0,0.0,0,1013.4,1,2,"",96
"2023-11-15 04:01:00",7.4,6.8,0.0,0.0,0,1013.4,0,1,"",96
"2023-11-15 04:02:00",7.4,6.7,0.0,0.0,0,1013.3,0,1,"",95
"2023-11-15 04:03:00",7.4,6.8,0.0,0.0,0,1013.4,1,2,"",96
"2023-11-15 04:04:00",7.3,6.6,0.0,0.0,0,1013.4,0,1,"",95
"2023-11-15 04:05:00",7.4,6.7,0.0,0.0,0,1013.4,1,2,"",95
"2023-11-15 04:06:00",7.4,6.7,0.0,0.0,0,1013.3,1,2,"",95
"2023-11-15 04:07:00",7.4,6.8,0.0,0.0,0,1013.3,0,1,"",96
"2023-11-15 04:08:00",7.4,6.7,0.0,0.0,0,1013.3,1,1,"",95
"2023-11-15 04:09:00",7.4,6.8,0.0,0.0,0,1013.4,0,1,"",96
"2023-11-15 04:10:00",7.3,6.6,0.0,0.0,0,1013.4,0,1,"",95
"2023-11-15 04:11:00",7.3,6.6,0.0,0.0,0,1013.4,0,1,"",95
"2023-11-15 04:12:00",7.3,6.6,0.0,0.0,0,1013.4,0,1,"",95
"2023-11-15 04:13:00",7.3,6.6,0.0,0.0,0,1013.4,1,2,"",95
"2023-11-15 04:14:00",7.3,6.6,0.0,0.0,0,1013.4,1,2,"",95
"2023-11-15 04:15:00",7.3,6.6,0.0,0.0,0,1013.5,1,2,"",95
"2023-11-15 04:16:00",7.3,6.6,0.0,0.0,0,1013.4,1,2,"",95
"2023-11-15 04:17:00",7.3,6.6,0.0,0.0,0,1013.5,0,1,"",95
"2023-11-15 04:18:00",7.3,6.6,0.0,0.0,0,1013.5,0,1,"",95
"2023-11-15 04:19:00",7.3,6.6,0.0,0.0,0,1013.5,0,1,"",95
"2023-11-15 04:20:00",7.3,6.7,0.0,0.0,0,1013.5,1,1,"",96
"2023-11-15 04:21:00",7.3,6.6,0.0,0.0,0,1013.5,1,2,"",95
"2023-11-15 04:22:00",7.3,6.6,0.0,0.0,0,1013.5,1,1,"",95
"2023-11-15 04:23:00",7.3,6.6,0.0,0.0,0,1013.5,1,2,"",95
"2023-11-15 04:24:00",7.3,6.6,0.0,0.0,0,1013.5,1,2,"",95
"2023-11-15 04:25:00",7.3,6.6,0.0,0.0,0,1013.5,1,2,"",95
"2023-11-15 04:26:00",7.3,6.6,0.0,0.0,0,1013.6,1,2,"",95
"2023-11-15 04:27:00",7.3,6.6,0.0,0.0,0,1013.5,1,1,"",95
"2023-11-15 04:28:00",7.3,6.6,0.0,0.0,0,1013.6,1,1,"",95
"2023-11-15 04:29:00",7.2,6.5,0.0,0.0,0,1013.5,1,1,"",95
"2023-11-15 04:30:00",7.3,6.6,0.0,0.0,0,1013.5,1,2,"",95
"2023-11-15 04:31:00",7.3,6.6,0.0,0.0,0,1013.5,1,2,"",95
"2023-11-15 04:32:00",7.3,6.6,0.0,0.0,0,1013.6,1,2,"",95
"2023-11-15 04:33:00",7.3,6.6,0.0,0.0,0,1013.6,1,2,"",95
"2023-11-15 04:34:00",7.2,6.5,0.0,0.0,0,1013.6,1,2,"",95
"2023-11-15 04:35:00",7.2,6.5,0.0,0.0,0,1013.6,1,2,"",95
"2023-11-15 04:36:00",7.2,6.5,0.0,0.0,0,1013.6,1,2,"",95
"2023-11-15 04:37:00",7.2,6.5,0.0,0.0,0,1013.7,1,2,"",95
"2023-11-15 04:38:00",7.2,6.5,0.0,0.0,0,1013.7,1,2,"",95
"2023-11-15 04:39:00",7.2,6.5,0.0,0.0,0,1013.7,1,2,"",95
"2023-11-15 04:40:00",7.2,6.5,0.0,0.0,0,1013.7,1,2,"",95
"2023-11-15 04:41:00",7.2,6.5,0.0,0.0,0,1013.8,1,1,"",95
"2023-11-15 04:42:00",7.2,6.5,0.0,0.0,0,1013.8,1,1,"",95
"2023-11-15 04:43:00",7.2,6.5,0.0,0.0,0,1013.8,1,2,"",95
"2023-11-15 04:44:00",7.2,6.5,0.0,0.0,0,1013.8,1,2,"",95
"2023-11-15 04:45:00",7.2,6.5,0.0,0.0,0,1013.8,1,2,"",95
"2023-11-15 04:46:00",7.2,6.5,0.0,0.0,0,1013.8,1,2,"",95
"2023-11-15 04:47:00",7.2,6.5,0.0,0.0,0,1013.8,1,2,"",95
"2023-11-15 04:48:00",7.2,6.5,0.0,0.0,0,1013.8,1,1,"",95
"2023-11-15 04:49:00",7.1,6.4,0.0,0.0,0,1013.8,1,2,"",95
"2023-11-15 04:50:00",7.1,6.4,0.0,0.0,0,1013.8,1,2,"",95
"2023-11-15 04:51:00",7.1,6.4,0.0,0.0,0,1013.8,1,2,"",95
"2023-11-15 04:52:00",7.1,6.4,0.0,0.0,0,1013.8,1,2,"",95
"2023-11-15 04:53:00",7.2,6.5,0.0,0.0,0,1013.8,1,2,"",95
"2023-11-15 04:54:00",7.1,6.4,0.0,0.0,0,1013.8,1,2,"",95
"2023-11-15 04:55:00",7.1,6.4,0.0,0.0,0,1013.7,1,2,"",95
"2023-11-15 04:56:00",7.1,6.4,0.0,0.0,0,1013.7,1,2,"",95
"2023-11-15 04:57:00",7.1,6.4,0.0,0.0,0,1013.8,1,2,"",95
"2023-11-15 04:58:00",7.1,6.4,0.0,0.0,0,1013.8,1,1,"",95
"2023-11-15 04:59:00",7.1,6.4,0.0,0.0,0,1013.9,1,1,"",95
"2023-11-15 05:00:00",7.1,6.5,0.0,0.0,0,1013.8,1,1,"",96
"2023-11-15 05:01:00",7.1,6.4,0.0,0.0,0,1013.8,1,1,"",95
"2023-11-15 05:02:00",7.1,6.4,0.0,0.0,0,1013.9,1,1,"",95
"2023-11-15 05:03:00",7.1,6.4,0.0,0.0,0,1013.9,1,1,"",95
"2023-11-15 05:04:00",7.1,6.5,0.0,0.0,0,1013.9,1,1,"",96
"2023-11-15 05:05:00",7.1,6.5,0.0,0.0,0,1013.9,1,1,"",96
"2023-11-15 05:06:00",7.1,6.4,0.0,0.0,0,1014.0,1,1,"",95
"2023-11-15 05:07:00",7.1,6.4,0.0,0.0,0,1014.0,1,1,"",95
"2023-11-15 05:08:00",7.1,6.4,0.0,0.0,0,1014.0,1,1,"",95
"2023-11-15 05:09:00",7.1,6.4,0.0,0.0,0,1014.0,1,1,"",95
"2023-11-15 05:10:00",7.1,6.4,0.0,0.0,0,1014.0,1,1,"",95
"2023-11-15 05:11:00",7.1,6.4,0.0,0.0,0,1014.0,1,1,"",95
"2023-11-15 05:12:00",7.1,6.4,0.0,0.0,0,1014.0,1,1,"",95
"2023-11-15 05:13:00",7.0,6.3,0.0,0.0,0,1014.1,1,1,"",95
"2023-11-15 05:14:00",7.1,6.4,0.0,0.0,0,1014.1,1,1,"",95
"2023-11-15 05:15:00",7.0,6.3,0.0,0.0,0,1014.1,1,1,"",95
"2023-11-15 05:16:00",7.0,6.3,0.0,0.0,0,1014.1,1,1,"",95
"2023-11-15 05:17:00",7.0,6.3,0.0,0.0,0,1014.0,1,1,"",95
"2023-11-15 05:18:00",7.0,6.3,0.0,0.0,0,1014.0,1,1,"",95
"2023-11-15 05:19:00",7.0,6.3,0.0,0.0,0,1014.0,1,1,"",95
"2023-11-15 05:20:00",7.0,6.3,0.0,0.0,0,1014.0,1,1,"",95
"2023-11-15 05:21:00",6.9,6.2,0.0,0.0,0,1014.0,1,1,"",95
"2023-11-15 05:22:00",6.9,6.2,0.0,0.0,0,1013.9,1,1,"",95
"2023-11-15 05:23:00",6.9,6.2,0.0,0.0,0,1013.9,1,1,"",95
"2023-11-15 05:24:00",6.9,6.2,0.0,0.0,0,1013.9,1,1,"",95
"2023-11-15 05:25:00",6.9,6.2,0.0,0.0,0,1013.9,1,1,"",95
"2023-11-15 05:26:00",6.9,6.2,0.0,0.0,0,1013.9,1,1,"",95
"2023-11-15 05:27:00",6.9,6.2,0.0,0.0,0,1013.9,1,1,"",95
"2023-11-15 05:28:00",6.9,6.2,0.0,0.0,0,1013.8,1,1,"",95
"2023-11-15 05:29:00",6.9,6.2,0.0,0.0,0,1013.8,1,1,"",95
"2023-11-15 05:30:00",6.9,6.2,0.0,0.0,0,1013.8,1,1,"",95
"2023-11-15 05:31:00",6.9,6.2,0.0,0.0,0,1013.8,1,1,"",95
"2023-11-15 05:32:00",6.9,6.2,0.0,0.0,0,1013.9,1,1,"",95
"2023-11-15 05:33:00",6.9,6.2,0.0,0.0,0,1013.9,1,1,"",95
"2023-11-15 05:34:00",6.9,6.2,0.0,0.0,0,1013.9,1,1,"",95
"2023-11-15 05:35:00",6.9,6.2,0.0,0.0,0,1013.9,1,1,"",95
"2023-11-15 05:36:00",6.9,6.2,0.0,0.0,0,1013.9,1,1,"",95
"2023-11-15 05:37:00",6.9,6.2,0.0,0.0,0,1013.9,1,1,"",95
"2023-11-15 05:38:00",6.9,6.2,0.0,0.0,0,1013.9,1,1,"",95
"2023-11-15 05:39:00",6.9,6.2,0.0,0.0,0,1013.9,1,1,"",95
"2023-11-15 05:40:00",6.9,6.2,0.0,0.0,0,1013.9,1,1,"",95
"2023-11-15 05:41:00",6.9,6.2,0.0,0.0,0,1013.9,1,1,"",95
"2023-11-15 05:42:00",6.9,6.2,0.0,0.0,0,1013.9,1,1,"",95
"2023-11-15 05:43:00",6.9,6.2,0.0,0.0,0,1013.9,1,1,"",95
"2023-11-15 05:44:00",6.9,6.2,0.0,0.0,0,1014.0,1,1,"",95
"2023-11-15 05:45:00",6.9,6.2,0.0,0.0,0,1014.0,1,1,"",95
"2023-11-15 05:46:00",6.9,6.2,0.0,0.0,0,1014.0,1,1,"",95
"2023-11-15 05:47:00",6.9,6.2,0.0,0.0,0,1014.0,1,1,"",95
"2023-11-15 05:48:00",6.9,6.2,0.0,0.0,0,1014.1,1,1,"",95
"2023-11-15 05:49:00",6.9,6.2,0.0,0.0,0,1014.1,1,1,"",95
"2023-11-15 05:50:00",6.9,6.2,0.0,0.0,0,1014.1,1,1,"",95
"2023-11-15 05:51:00",6.9,6.2,0.0,0.0,0,1014.1,1,1,"",95
"2023-11-15 05:52:00",6.8,6.1,0.0,0.0,0,1014.1,1,1,"",95
"2023-11-15 05:53:00",6.9,6.2,0.0,0.0,0,1014.1,1,1,"",95
"2023-11-15 05:54:00",6.9,6.3,0.0,0.0,0,1014.1,1,1,"",96
"2023-11-15 05:55:00",6.9,6.2,0.0,0.0,0,1014.1,1,1,"",95
"2023-11-15 05:56:00",6.8,6.1,0.0,0.0,0,1014.2,1,1,"",95
"2023-11-15 05:57:00",6.9,6.2,0.0,0.0,0,1014.1,1,1,"",95
"2023-11-15 05:58:00",6.8,6.2,0.0,0.0,0,1014.1,1,1,"",96
"2023-11-15 05:59:00",6.8,6.1,0.0,0.0,0,1014.1,1,1,"",95
"2023-11-15 06:00:00",6.8,6.1,0.0,0.0,0,1014.1,1,1,"",95
"2023-11-15 06:01:00",6.8,6.2,0.0,0.0,0,1014.1,1,1,"",96
"2023-11-15 06:02:00",6.8,6.2,0.0,0.0,0,1014.2,1,1,"",96
"2023-11-15 06:03:00",6.8,6.1,0.0,0.0,0,1014.1,1,1,"",95
"2023-11-15 06:04:00",6.8,6.1,0.0,0.0,0,1014.1,1,1,"",95
"2023-11-15 06:05:00",6.8,6.1,0.0,0.0,0,1014.1,1,1,"",95
"2023-11-15 06:06:00",6.8,6.1,0.0,0.0,0,1014.2,1,1,"",95
"2023-11-15 06:07:00",6.8,6.1,0.0,0.0,0,1014.1,1,1,"",95
"2023-11-15 06:08:00",6.8,6.1,0.0,0.0,0,1014.1,1,1,"",95
"2023-11-15 06:09:00",6.8,6.2,0.0,0.0,0,1014.1,1,1,"",96
"2023-11-15 06:10:00",6.8,6.2,0.0,0.0,0,1014.1,1,1,"",96
"2023-11-15 06:11:00",6.8,6.1,0.0,0.0,0,1014.1,1,1,"",95
"2023-11-15 06:12:00",6.8,6.1,0.0,0.0,0,1014.1,1,1,"",95
"2023-11-15 06:13:00",6.8,6.1,0.0,0.0,0,1014.1,1,1,"",95
"2023-11-15 06:14:00",6.8,6.1,0.0,0.0,0,1014.1,1,1,"",95
"2023-11-15 06:15:00",6.8,6.1,0.0,0.0,0,1014.1,1,1,"",95
"2023-11-15 06:16:00",6.7,6.1,0.0,0.0,0,1014.1,1,1,"",96
"2023-11-15 06:17:00",6.7,6.0,0.0,0.0,0,1014.1,1,1,"",95
"2023-11-15 06:18:00",6.7,6.1,0.0,0.0,0,1014.1,1,1,"",96
"2023-11-15 06:19:00",6.7,6.0,0.0,0.0,0,1014.1,1,1,"",95
"2023-11-15 06:20:00",6.7,6.0,0.0,0.0,0,1014.2,1,1,"",95
"2023-11-15 06:21:00",6.7,6.0,0.0,0.0,0,1014.1,1,1,"",95
"2023-11-15 06:22:00",6.7,6.0,0.0,0.0,0,1014.1,1,1,"",95
"2023-11-15 06:23:00",6.7,6.0,0.0,0.0,0,1014.1,1,1,"",95
"2023-11-15 06:24:00",6.7,6.0,0.0,0.0,0,1014.2,1,1,"",95
"2023-11-15 06:25:00",6.7,6.0,0.0,0.0,0,1014.2,1,1,"",95
"2023-11-15 06:26:00",6.7,6.0,0.0,0.0,0,1014.2,1,1,"",95
"2023-11-15 06:27:00",6.7,6.0,0.0,0.0,0,1014.2,1,1,"",95
"2023-11-15 06:28:00",6.7,6.0,0.0,0.0,0,1014.2,1,1,"",95
"2023-11-15 06:29:00",6.6,5.9,0.0,0.0,0,1014.2,1,1,"",95
"2023-11-15 06:30:00",6.6,5.9,0.0,0.0,0,1014.3,1,1,"",95
"2023-11-15 06:31:00",6.6,5.9,0.0,0.0,0,1014.4,1,1,"",95
"2023-11-15 06:32:00",6.6,5.9,0.0,0.0,0,1014.3,1,1,"",95
"2023-11-15 06:33:00",6.6,5.9,0.0,0.0,0,1014.4,1,1,"",95
"2023-11-15 06:34:00",6.6,5.9,0.0,0.0,0,1014.4,1,1,"",95
"2023-11-15 06:35:00",6.6,5.9,0.0,0.0,0,1014.4,1,1,"",95
"2023-11-15 06:36:00",6.6,5.9,0.0,0.0,0,1014.4,1,1,"",95
"2023-11-15 06:37:00",6.6,5.9,0.0,0.0,0,1014.4,1,1,"",95
"2023-11-15 06:38:00",6.6,5.9,0.0,0.0,0,1014.4,1,1,"",95
"2023-11-15 06:39:00",6.6,5.9,0.0,0.0,0,1014.5,1,1,"",95
"2023-11-15 06:40:00",6.6,5.9,0.0,0.0,0,1014.5,1,1,"",95
"2023-11-15 06:41:00",6.6,5.9,0.0,0.0,0,1014.5,1,1,"",95
"2023-11-15 06:42:00",6.5,5.8,0.0,0.0,0,1014.6,1,1,"",95
"2023-11-15 06:43:00",6.6,5.9,0.0,0.0,0,1014.5,1,1,"",95
"2023-11-15 06:44:00",6.5,5.8,0.0,0.0,0,1014.6,1,1,"",95
"2023-11-15 06:45:00",6.5,5.8,0.0,0.0,0,1014.6,1,1,"",95
"2023-11-15 06:46:00",6.5,5.8,0.0,0.0,0,1014.6,1,1,"",95
"2023-11-15 06:47:00",6.4,5.7,0.0,0.0,0,1014.6,1,1,"",95
"2023-11-15 06:48:00",6.5,5.8,0.0,0.0,0,1014.6,1,1,"",95
"2023-11-15 06:49:00",6.5,5.8,0.0,0.0,0,1014.6,1,1,"",95
"2023-11-15 06:50:00",6.5,5.8,0.0,0.0,0,1014.6,1,1,"",95
"2023-11-15 06:51:00",6.4,5.7,0.0,0.0,0,1014.6,1,1,"",95
"2023-11-15 06:52:00",6.4,5.7,0.0,0.0,0,1014.7,1,1,"",95
"2023-11-15 06:53:00",6.5,5.8,0.0,0.0,0,1014.6,1,1,"",95
"2023-11-15 06:54:00",6.4,5.7,0.0,0.0,0,1014.7,1,1,"",95
"2023-11-15 06:55:00",6.4,5.7,0.0,0.0,0,1014.6,1,1,"",95
"2023-11-15 06:56:00",6.4,5.7,0.0,0.0,0,1014.6,1,1,"",95
"2023-11-15 06:57:00",6.4,5.7,0.0,0.0,0,1014.6,1,1,"",95
"2023-11-15 06:58:00",6.4,5.7,0.0,0.0,0,1014.6,1,1,"",95